Regional Weather Roundup
Issued by NWS Sioux Falls, SD

Home | Current Version | Previous Version | Text Only | Print | Product List | Glossary Off
Versions: 1 2 3 4 5 6 7 8 9 10 11 12 13 14 15 16 17 18 19 20 21 22 23 24 25 26 27 28 29 30 31 32 33 34 35 36 37 38 39 40 41 42 43 44 45 46 47 48 49 50

000
ASUS43 KFSD 271410
RWRFSD

WEATHER ROUNDUP FOR SE SOUTH DAKOTA/SW MINNESOTA/NW IOWA
NATIONAL WEATHER SERVICE SIOUX FALLS SD
800 AM CST TUE JAN 27 2015

NOTE: "FAIR" INDICATES FEW OR NO CLOUDS BELOW 12,000 FEET WITH NO
SIGNIFICANT WEATHER AND OR OBSTRUCTIONS TO VISIBILITY.


SDZ038>040-050-052>070-271500-
SOUTHEAST SOUTH DAKOTA

CITY           SKY/WX    TMP DP  RH WIND       PRES   REMARKS
CHAMBERLAIN    CLEAR     32  30  92 SE10      29.98S WCI  24
HURON          CLEAR     29  27  92 SE7       30.04R WCI  22
MADISON        FAIR      28  28 100 SE5       30.06R WCI  23
MITCHELL       CLEAR     31  29  92 SE9       30.06R WCI  23
SIOUX FALLS    FOG       28  27  96 E7        30.09R VSB 1/8 WCI  21
WINNER         FAIR      36  29  75 S5        29.96R
YANKTON        FAIR      27  25  93 E3        30.09R
$$

MNZ071-072-080-081-089-090-097-098-271500-
SOUTHWEST MINNESOTA

CITY           SKY/WX    TMP DP  RH WIND       PRES   REMARKS
FAIRMONT       CLEAR     27  18  69 N3        30.12R
JACKSON        PTCLDY    30  28  93 NE3       30.11R
LUVERNE        FOG       32  30  93 E6        30.10S VSB 1/4 WCI  26
MARSHALL       CLOUDY    28  25  86 CALM      30.13R VSB 1/2
MONTEVIDEO     CLOUDY    28  28 100 S5        30.12R WCI  23
PIPESTONE      FOG       28  28 100 SE6       30.07R VSB<1/4 WCI  22
REDWOOD FALLS  CLOUDY    31  28  89 E3        30.13R
TRACY          FOG       29  29  99 CALM      30.11R VSB 1/2
WINDOM         CLOUDY    28  28 100 CALM      30.11R
WORTHINGTON    CLOUDY    28  27  93 E3        30.11R VSB<1/4
$$

IAZ001>003-012>014-020>022-031-032-NEZ013-014-SDZ071-271500-
NORTHWEST IOWA

CITY           SKY/WX    TMP DP  RH WIND       PRES   REMARKS
CHEROKEE       CLOUDY    31  31 100 NE3       30.13R FOG
DENISON        FOG       25  25 100 CALM      30.11R VSB<1/4
ESTHERVILLE    FOG       27  27 100 N5        30.11R VSB 1/4 WCI  22
LE MARS        FOG       30  30 100 E5        30.12R VSB<1/4 WCI  25
ORANGE CITY    FOG       30  30 100 CALM      30.10S VSB 1/2
SHELDON        CLOUDY    30  30 100 E8        30.10R FOG     WCI  23
SIOUX CITY     CLEAR     26  24  92 E6        30.11S WCI  19
SPENCER        FOG       30  28  92 CALM      30.13R VSB 3/4
STORM LAKE     FOG       28  28 100 CALM      30.12R VSB<1/4
$$

ABBREVIATIONS USED IN REMARKS
   TC - TEMPERATURE IN CELSIUS
  WCI - WIND CHILL INDEX
   HX - HEAT INDEX
  VSB - VISIBILITY




USA.gov is the U.S. government's official web portal to all federal, state and local government web resources and services.